[[{"header":{"parameterUnit":"m.s-1","parameterCategory":1,"la1":30.2991,"la2":30.254,"lo1":-89.0895,"lo2":-89.0444,"dy":0.0017,"dx":0.0017,"nx":28,"ny":28,"refTime":"2025-03-24T21:00:00:Z","depth":0,"parameterNumber":2,"parameterNumberName":"U-component_of_WINDS"},"data":[0,0,0,0,0,0,0,0,0,0,0,0,0,0,0,0,0,0,0,0,0,0,0,0,0,0,0,0,0,0,0,0,0,0,0,0,0,0,0,0,0,0,0,0,0,0,0,0,0,0,0,0,0,0,0,0,0,0,0.7094,0.7094,0,0.7124,0.7124,0.7125,0.7111,0.711,0.711,0.7109,0.7139,0.7141,0.7142,0,0,0,0,0,0,0,0,0,0,0,0,0,0.7025,0.7026,0.7093,0.7094,0.7094,0.7124,0.7124,0.7125,0.7111,0.711,0.7109,0.7109,0.7139,0.7141,0.7143,0,0,0,0,0,0,0,0,0,0,0,0,0,0.7055,0.7027,0.7093,0.7091,0.7091,0.7124,0.7124,0.7125,0.7111,0.711,0.7109,0.7108,0.7138,0.7141,0.7143,0.7179,0,0,0.715,0.7151,0,0,0,0,0,0,0,0,0.7053,0.7057,0.7091,0.7091,0.7091,0.7113,0.7111,0.7143,0.7112,0.7104,0.7109,0.7108,0.7131,0.7134,0.7142,0.7181,0.7182,0.715,0.7151,0.7152,0.7153,0,0,0,0,0,0,0,0.7051,0.7056,0.7105,0.7092,0.7092,0.7089,0.7092,0.7117,0.7123,0.7104,0.7103,0.7107,0.7131,0.714,0.7143,0.7182,0.715,0.7152,0.7153,0.7154,0.7254,0.7256,0,0,0,0,0,0,0.7049,0.7054,0.7105,0.7106,0.7069,0.7091,0.7094,0.7107,0.7123,0.7125,0.7108,0.7106,0.7137,0.714,0.7144,0.7189,0.7152,0.7154,0.7156,0.7253,0.7255,0.7256,0,0,0,0,0,0,0.7048,0.7054,0.7103,0.708,0.7086,0.7093,0.7108,0.7108,0.7117,0.7126,0.7127,0.7116,0.7136,0.7141,0.7171,0.719,0.7155,0.7157,0.7251,0.7254,0.7255,0.7279,0,0,0,0,0,0,0.7046,0.7053,0.7067,0.7081,0.7088,0.713,0.7109,0.7109,0.7121,0.7119,0.7134,0.7135,0.7136,0.7168,0.7173,0.7192,0.7159,0.725,0.7252,0.7255,0.7276,0.7281,0.7285,0,0,0,0,0,0.7043,0.7071,0.7067,0.7074,0.7105,0.7131,0.7135,0.7135,0.7122,0.7137,0.7143,0.7135,0.7187,0.7171,0.7177,0.7197,0.7249,0.7252,0.7255,0.7274,0.728,0.7285,0,0,0,0,0,0,0.7059,0.7073,0.7069,0.7102,0.7116,0.7128,0.7146,0.7141,0.7158,0.7155,0.7155,0.7158,0.719,0.7196,0.7178,0.7234,0.7216,0.722,0.7229,0.7234,0.7239,0.7237,0.7161,0,0,0,0,0,0.7066,0.7086,0.7098,0.7126,0.7133,0.7139,0.715,0.7149,0.7163,0.7168,0.7176,0.719,0.7209,0.7222,0.7241,0.7277,0.7281,0.7294,0.7299,0.7302,0.7306,0.7327,0.7334,0.7266,0.7266,0.7266,0,0,0.7082,0.7092,0.7105,0.713,0.714,0.7161,0.7143,0.7166,0.7182,0.7171,0.7201,0.7208,0.7223,0.7257,0.7272,0.7263,0.7326,0.7306,0.7309,0.7311,0.7331,0.7338,0.7343,0.7268,0.7267,0.7267,0,0,0.7121,0.713,0.7156,0.7167,0.7183,0.7186,0.7193,0.7207,0.7211,0.7241,0.7234,0.7253,0.7286,0.7298,0.7308,0.7354,0.7348,0.736,0.7384,0.7405,0.741,0.7415,0.7432,0.7438,0.7364,0.7364,0.7364,0,0.7138,0.717,0.717,0.7194,0.7206,0.7198,0.7224,0.7235,0.7256,0.7264,0.7254,0.7297,0.7307,0.7344,0.7356,0.7364,0.7372,0.7358,0.7409,0.7414,0.7419,0.7435,0.7442,0.7365,0.7365,0.7365,0.7365,0,0.7191,0.7213,0.7232,0.7253,0.7267,0.7292,0.7296,0.7311,0.7309,0.7314,0.7345,0.7357,0.7378,0.7387,0.7385,0.7425,0.7419,0.7409,0.7391,0.7427,0.7442,0.7449,0.7367,0.7367,0.7366,0.7366,0,0,0.724,0.7262,0.7269,0.728,0.7297,0.7315,0.734,0.7361,0.7374,0.7389,0.7411,0.744,0.7432,0.7444,0.7443,0.7462,0.7499,0.745,0.745,0.7459,0.7545,0.7553,0.756,0.7495,0.7496,0.7497,0.7544,0,0.7281,0.7325,0.7327,0.7368,0.7389,0.7383,0.7405,0.7419,0.7425,0.7444,0.745,0.7472,0.7458,0.7465,0.7483,0.7491,0.7516,0.7487,0.7516,0.7517,0.7513,0.7568,0.7576,0.7619,0.755,0.7551,0.7552,0,0.7335,0.7353,0.7396,0.7412,0.7421,0.7441,0.7462,0.748,0.7496,0.7499,0.7513,0.7511,0.7537,0.7518,0.7556,0.7536,0.7548,0.7553,0.7555,0.7558,0.7537,0.7573,0.7633,0.764,0.7561,0.756,0.756,0,0.7368,0.7403,0.7433,0.7442,0.7462,0.7476,0.7485,0.75,0.7513,0.7532,0.754,0.7561,0.7573,0.7589,0.7593,0.7578,0.7631,0.7612,0.7635,0.7635,0.7646,0.7645,0.771,0.7653,0.7653,0.7653,0.7652,0,0.7414,0.7441,0.7449,0.7468,0.7498,0.75,0.753,0.7538,0.7552,0.7573,0.7568,0.7588,0.7591,0.7612,0.7615,0.7646,0.7651,0.7655,0.7655,0.7655,0.7655,0.7663,0.7661,0.7654,0.7654,0.7654,0.7653,0,0.7456,0.7462,0.7496,0.7512,0.7517,0.7539,0.7553,0.7571,0.7577,0.7604,0.761,0.7619,0.7643,0.7649,0.7677,0.7679,0.7717,0.7714,0.7712,0.7712,0.7735,0.7733,0.7807,0.7817,0.7753,0.7754,0.7754,0,0.7486,0.7506,0.7525,0.7539,0.7549,0.7571,0.7585,0.7589,0.7603,0.7624,0.7641,0.7664,0.7684,0.7723,0.7732,0.7755,0.7753,0.7777,0.7756,0.7756,0.7754,0.7753,0.7756,0.7781,0.7782,0.7783,0.7783,0,0.7538,0.754,0.7561,0.7583,0.76,0.7617,0.7634,0.7645,0.7651,0.7668,0.7693,0.7708,0.7738,0.7763,0.7785,0.7794,0.779,0.779,0.7797,0.7797,0.7795,0.7798,0.7723,0.7788,0.7788,0.7787,0.7787,0.7787,0.7575,0.7594,0.7611,0.7634,0.7647,0.7663,0.7682,0.7691,0.7712,0.7737,0.7737,0.7765,0.7782,0.7812,0.7823,0.7845,0.7837,0.7847,0.7849,0.7852,0.7854,0.7792,0.7849,0.7849,0.7849,0.7849,0.7848,0,0.7628,0.7639,0.766,0.7684,0.7703,0.7698,0.7716,0.7732,0.7757,0.7773,0.7793,0.7822,0.7846,0.7858,0.7882,0.7897,0.7896,0.7903,0.7903,0.7905,0.7859,0.7851,0.7904,0.7904,0.7904,0.7904,0.7904,0.7904,0.7658,0.769,0.7695,0.7733,0.7744,0.7772,0.7783,0.7798,0.7811,0.7844,0.7865,0.7872,0.7887,0.7912,0.7934,0.7937,0.7946,0.7955,0.7957,0.7914,0.7908,0.7903,0.7896,0.7957,0.7957,0.8001,0.8002,0.8002]},{"header":{"parameterUnit":"m.s-1","parameterCategory":1,"la1":30.2991,"la2":30.254,"lo1":-89.0895,"lo2":-89.0444,"dy":0.0017,"dx":0.0017,"nx":28,"ny":28,"refTime":"2025-03-24T21:00:00:Z","depth":0,"parameterNumber":3,"parameterNumberName":"V-component_of_WINDS"},"data":[0,0,0,0,0,0,0,0,0,0,0,0,0,0,0,0,0,0,0,0,0,0,0,0,0,0,0,0,0,0,0,0,0,0,0,0,0,0,0,0,0,0,0,0,0,0,0,0,0,0,0,0,0,0,0,0,0,0,-1.1299,-1.13,0,-1.1466,-1.1468,-1.147,-1.1563,-1.1563,-1.1564,-1.1564,-1.174,-1.1744,-1.1749,0,0,0,0,0,0,0,0,0,0,0,0,0,-1.1068,-1.1072,-1.1298,-1.1301,-1.1303,-1.1466,-1.1468,-1.147,-1.1563,-1.1563,-1.1564,-1.1564,-1.1739,-1.1744,-1.1749,0,0,0,0,0,0,0,0,0,0,0,0,0,-1.1195,-1.1073,-1.1298,-1.1368,-1.1376,-1.1465,-1.1468,-1.1471,-1.1563,-1.1563,-1.1564,-1.1564,-1.1737,-1.1743,-1.175,-1.1783,0,0,-1.177,-1.1773,0,0,0,0,0,0,0,0,-1.1188,-1.1203,-1.1356,-1.1364,-1.1373,-1.1494,-1.1451,-1.1576,-1.1563,-1.1492,-1.1564,-1.1564,-1.1658,-1.1671,-1.1702,-1.1791,-1.1799,-1.1771,-1.1775,-1.1778,-1.178,0,0,0,0,0,0,0,-1.1179,-1.1197,-1.1365,-1.1358,-1.1368,-1.1395,-1.1413,-1.1475,-1.1571,-1.1498,-1.1506,-1.1524,-1.1663,-1.1695,-1.1707,-1.1801,-1.1771,-1.1776,-1.1781,-1.1783,-1.1934,-1.1934,0,0,0,0,0,0,-1.1158,-1.1189,-1.136,-1.137,-1.1279,-1.1398,-1.1419,-1.1455,-1.1571,-1.1589,-1.1523,-1.1528,-1.1684,-1.1699,-1.1713,-1.1764,-1.1778,-1.1784,-1.1788,-1.1934,-1.1934,-1.1934,0,0,0,0,0,0,-1.1152,-1.1172,-1.1353,-1.1281,-1.1306,-1.1402,-1.1441,-1.1458,-1.149,-1.1589,-1.1608,-1.1538,-1.1685,-1.1704,-1.1766,-1.1771,-1.1787,-1.1793,-1.1934,-1.1934,-1.1934,-1.1862,0,0,0,0,0,0,-1.1145,-1.1169,-1.118,-1.1281,-1.131,-1.14,-1.1441,-1.1461,-1.1501,-1.1508,-1.1608,-1.1625,-1.1686,-1.1756,-1.1773,-1.1781,-1.1798,-1.1934,-1.1934,-1.1934,-1.1865,-1.186,-1.1856,0,0,0,0,0,-1.1137,-1.1153,-1.118,-1.1201,-1.1325,-1.14,-1.1417,-1.1485,-1.1501,-1.1515,-1.158,-1.1622,-1.1768,-1.1761,-1.1781,-1.1791,-1.1934,-1.1934,-1.1934,-1.1867,-1.1861,-1.1856,0,0,0,0,0,0,-1.1051,-1.1168,-1.1199,-1.1248,-1.1313,-1.1415,-1.1434,-1.1476,-1.1539,-1.1543,-1.1628,-1.165,-1.1705,-1.1755,-1.1745,-1.1833,-1.1856,-1.186,-1.1798,-1.1793,-1.1789,-1.1776,-1.1804,0,0,0,0,0,-1.1038,-1.1086,-1.1187,-1.1221,-1.1252,-1.1337,-1.1372,-1.142,-1.1492,-1.152,-1.1589,-1.1659,-1.1721,-1.176,-1.1822,-1.1873,-1.1899,-1.189,-1.1886,-1.1881,-1.1884,-1.192,-1.1919,-1.1934,-1.1934,-1.1934,0,0,-1.1011,-1.1081,-1.1106,-1.1205,-1.1261,-1.1313,-1.136,-1.1411,-1.1452,-1.1528,-1.1592,-1.1645,-1.1729,-1.1787,-1.1816,-1.183,-1.1886,-1.1881,-1.1877,-1.1883,-1.192,-1.1919,-1.1917,-1.1934,-1.1934,-1.1934,0,0,-1.099,-1.1045,-1.1082,-1.1138,-1.1223,-1.1281,-1.1289,-1.1387,-1.1425,-1.149,-1.155,-1.1601,-1.1705,-1.1764,-1.1807,-1.1814,-1.1858,-1.1832,-1.1809,-1.1843,-1.1842,-1.1842,-1.1848,-1.1848,-1.1835,-1.1834,-1.1834,0,-1.0946,-1.1023,-1.1096,-1.1145,-1.1189,-1.1261,-1.1302,-1.1353,-1.1454,-1.1485,-1.1499,-1.1635,-1.1696,-1.1771,-1.1773,-1.1805,-1.1821,-1.1821,-1.1836,-1.1836,-1.1837,-1.1844,-1.1846,-1.1831,-1.1831,-1.1832,-1.1832,0,-1.0968,-1.1022,-1.1042,-1.1138,-1.1184,-1.1228,-1.1311,-1.135,-1.1395,-1.1453,-1.1521,-1.1598,-1.168,-1.1701,-1.1745,-1.1784,-1.1791,-1.1819,-1.1844,-1.1831,-1.1839,-1.1842,-1.1826,-1.1827,-1.1828,-1.1829,0,0,-1.0894,-1.1033,-1.1039,-1.1086,-1.1187,-1.1232,-1.1282,-1.1361,-1.1395,-1.1464,-1.1511,-1.16,-1.1629,-1.1678,-1.173,-1.176,-1.1766,-1.1786,-1.1789,-1.1782,-1.182,-1.1798,-1.18,-1.1795,-1.1796,-1.1797,-1.1814,0,-1.0889,-1.098,-1.1049,-1.1115,-1.1169,-1.1241,-1.1286,-1.1355,-1.1411,-1.1468,-1.1531,-1.1594,-1.1625,-1.1656,-1.1689,-1.1758,-1.1775,-1.1758,-1.1844,-1.1846,-1.1821,-1.1804,-1.178,-1.1792,-1.1817,-1.1817,-1.1818,0,-1.0893,-1.096,-1.1031,-1.1132,-1.1157,-1.1195,-1.1277,-1.1328,-1.1411,-1.145,-1.1508,-1.1563,-1.1624,-1.1643,-1.1731,-1.1718,-1.1758,-1.1798,-1.18,-1.1812,-1.1831,-1.1817,-1.1797,-1.1799,-1.1823,-1.1822,-1.1822,0,-1.0836,-1.0944,-1.1002,-1.1039,-1.1157,-1.1184,-1.1234,-1.1317,-1.1362,-1.1434,-1.1465,-1.1544,-1.1587,-1.1648,-1.1725,-1.1731,-1.1807,-1.1831,-1.1845,-1.1843,-1.1857,-1.1855,-1.1845,-1.188,-1.188,-1.188,-1.188,0,-1.0823,-1.0865,-1.0978,-1.1014,-1.1065,-1.1146,-1.1196,-1.1253,-1.1327,-1.1378,-1.1446,-1.1494,-1.1591,-1.1652,-1.1712,-1.1779,-1.1797,-1.1834,-1.185,-1.1828,-1.1824,-1.1856,-1.1858,-1.188,-1.188,-1.188,-1.188,0,-1.0767,-1.0844,-1.0913,-1.102,-1.1048,-1.1081,-1.1175,-1.1215,-1.1277,-1.1341,-1.1362,-1.1459,-1.1535,-1.1617,-1.172,-1.1762,-1.1826,-1.1847,-1.1797,-1.1806,-1.1816,-1.1815,-1.1828,-1.1836,-1.1862,-1.1861,-1.1861,0,-1.0754,-1.0788,-1.09,-1.0939,-1.0988,-1.1049,-1.1096,-1.118,-1.1226,-1.1326,-1.1355,-1.1436,-1.1504,-1.1622,-1.1705,-1.1786,-1.1811,-1.181,-1.1824,-1.1803,-1.1815,-1.1812,-1.1819,-1.1806,-1.1805,-1.1805,-1.1804,0,-1.0725,-1.0763,-1.0826,-1.0905,-1.0959,-1.1026,-1.1095,-1.1124,-1.1222,-1.1272,-1.135,-1.1403,-1.151,-1.1591,-1.1683,-1.174,-1.179,-1.18,-1.1808,-1.1787,-1.1758,-1.1777,-1.1788,-1.1799,-1.1799,-1.18,-1.18,-1.18,-1.0692,-1.0728,-1.0813,-1.0883,-1.0945,-1.1009,-1.1053,-1.1122,-1.1187,-1.128,-1.1327,-1.1405,-1.1493,-1.1622,-1.1677,-1.1743,-1.1758,-1.1768,-1.1772,-1.1773,-1.177,-1.1746,-1.176,-1.176,-1.176,-1.176,-1.1761,0,-1.0669,-1.0728,-1.0792,-1.0888,-1.0945,-1.0986,-1.1067,-1.1113,-1.118,-1.1257,-1.1324,-1.1417,-1.1497,-1.1587,-1.1674,-1.171,-1.1735,-1.173,-1.1729,-1.1742,-1.1749,-1.1735,-1.1708,-1.1708,-1.1708,-1.1708,-1.1708,-1.1708,-1.0663,-1.0727,-1.0775,-1.0872,-1.0933,-1.1009,-1.1052,-1.1114,-1.1176,-1.1276,-1.1343,-1.1401,-1.1485,-1.158,-1.1657,-1.1682,-1.1712,-1.17,-1.1732,-1.1737,-1.1741,-1.1745,-1.1732,-1.1705,-1.1705,-1.1721,-1.1721,-1.1721]}]]